Sister Bay, Wisconsin, United States (54234)
Lat: 45.19N, Lon: 87.12W
Wx Zone: WIZ022
Local Info
Past Weather Observations for Monday, December 15, 2014

NOTE: This archive is for the closest National Weather Service station to Sister Bay. Information may differ from the station used for current weather conditions.

Click here for Long-term Archive

Time Weather Temperature Dewpoint Humidity Pressure Winds Precip Visibility
23:55
Overcast
Drizzle
37°F / 3°C 37°F / 3°C 100% 29.68 in
(1005 mb)
SE 3.5 mph
(SE 6 kph)
- 3SM
23:35
Overcast
Drizzle
37°F / 3°C 37°F / 3°C 100% 29.68 in
(1005 mb)
SE 8.1 mph
(SE 13 kph)
- 1SM
23:15
Overcast
Drizzle
37°F / 3°C 37°F / 3°C 100% 29.71 in
(1006 mb)
SE 6.9 mph
(SE 11 kph)
- 1/2SM
22:55
Overcast
Drizzle
37°F / 3°C 37°F / 3°C 100% 29.71 in
(1006 mb)
SE 6.9 mph
(SE 11 kph)
- 1/2SM
22:35
Overcast
Fog
37°F / 3°C 37°F / 3°C 100% 29.71 in
(1006 mb)
SE 6.9 mph
(SE 11 kph)
- 1/2SM
22:15
Overcast
Fog
37°F / 3°C 37°F / 3°C 100% 29.71 in
(1006 mb)
ESE 4.6 mph
(ESE 7 kph)
- 1/2SM
21:55
Overcast
Fog
37°F / 3°C 37°F / 3°C 100% 29.71 in
(1006 mb)
ESE 6.9 mph
(ESE 11 kph)
- 1/2SM
21:35
Overcast
Fog And Mist
37°F / 3°C 37°F / 3°C 100% 29.71 in
(1006 mb)
SE 3.5 mph
(SE 6 kph)
- 3/4SM
21:15
Overcast
Drizzle
37°F / 3°C 37°F / 3°C 100% 29.71 in
(1006 mb)
SE 5.8 mph
(SE 9 kph)
- 5SM
20:55
Overcast
Light Rain
37°F / 3°C 37°F / 3°C 100% 29.74 in
(1007 mb)
SE 3.5 mph
(SE 6 kph)
0.02 in
(0.51 mm)
5SM
20:35
Overcast
Light Rain
37°F / 3°C 37°F / 3°C 100% 29.71 in
(1006 mb)
E 4.6 mph
(E 7 kph)
0.02 in
(0.51 mm)
3SM
20:15
Overcast
Light Rain
37°F / 3°C 37°F / 3°C 100% 29.74 in
(1007 mb)
SE 5.8 mph
(SE 9 kph)
0.01 in
(0.25 mm)
5SM
19:55
Overcast
Rain
37°F / 3°C 37°F / 3°C 100% 29.74 in
(1007 mb)
Calm 0.04 in
(1.02 mm)
3SM
19:35
Overcast
Rain
37°F / 3°C 37°F / 3°C 100% 29.74 in
(1007 mb)
ESE 5.8 mph
(ESE 9 kph)
0.02 in
(0.51 mm)
2SM
19:15
Overcast
Drizzle
37°F / 3°C 37°F / 3°C 100% 29.74 in
(1007 mb)
SE 4.6 mph
(SE 7 kph)
- 4SM
18:55
Overcast
Light Rain
37°F / 3°C 37°F / 3°C 100% 29.74 in
(1007 mb)
SE 5.8 mph
(SE 9 kph)
0.02 in
(0.51 mm)
3SM
18:35
Overcast
Light Rain
37°F / 3°C 37°F / 3°C 100% 29.74 in
(1007 mb)
SE 5.8 mph
(SE 9 kph)
0.01 in
(0.25 mm)
4SM
18:15
Overcast
Light Rain
37°F / 3°C 37°F / 3°C 100% 29.74 in
(1007 mb)
SE 3.5 mph
(SE 6 kph)
0.01 in
(0.25 mm)
4SM
17:55
Overcast
Light Rain
37°F / 3°C 37°F / 3°C 100% 29.74 in
(1007 mb)
Calm 0.02 in
(0.51 mm)
1 1/4SM
17:35
Overcast
Rain
37°F / 3°C 37°F / 3°C 100% 29.74 in
(1007 mb)
Calm 0.01 in
(0.25 mm)
3/4SM
17:15
Overcast
Light Rain
37°F / 3°C 37°F / 3°C 100% 29.74 in
(1007 mb)
Calm 0.01 in
(0.25 mm)
1/2SM
16:55
Overcast
Light Rain
37°F / 3°C 37°F / 3°C 100% 29.74 in
(1007 mb)
Calm - 1/4SM
16:35
Overcast
Drizzle
37°F / 3°C 37°F / 3°C 100% 29.74 in
(1007 mb)
SE 4.6 mph
(SE 7 kph)
- 1/4SM
16:15
Overcast
Fog
37°F / 3°C 37°F / 3°C 100% 29.74 in
(1007 mb)
SSE 4.6 mph
(SSE 7 kph)
- 1/4SM
15:55
Overcast
Fog
37°F / 3°C 37°F / 3°C 100% 29.74 in
(1007 mb)
SE 5.8 mph
(SE 9 kph)
- M1/4SM
15:35
Overcast
Fog
37°F / 3°C 37°F / 3°C 100% 29.74 in
(1007 mb)
SE 4.6 mph
(SE 7 kph)
- M1/4SM
15:15
Overcast
Fog
37°F / 3°C 37°F / 3°C 100% 29.74 in
(1007 mb)
SE 4.6 mph
(SE 7 kph)
- M1/4SM
14:55
Overcast
Fog
37°F / 3°C 37°F / 3°C 100% 29.74 in
(1007 mb)
SE 4.6 mph
(SE 7 kph)
- M1/4SM
14:35
Overcast
Fog
39°F / 4°C 39°F / 4°C 100% 29.74 in
(1007 mb)
S 5.8 mph
(S 9 kph)
- M1/4SM
14:15
Overcast
Fog
39°F / 4°C 39°F / 4°C 100% 29.74 in
(1007 mb)
S 6.9 mph
(S 11 kph)
- M1/4SM
13:55
Overcast
Fog
39°F / 4°C 39°F / 4°C 100% 29.74 in
(1007 mb)
SSE 8.1 mph
(SSE 13 kph)
- M1/4SM
13:35
Overcast
Fog
39°F / 4°C 39°F / 4°C 100% 29.74 in
(1007 mb)
SSE 5.8 mph
(SSE 9 kph)
- M1/4SM
13:15
Overcast
Fog
39°F / 4°C 39°F / 4°C 100% 29.77 in
(1008 mb)
S 5.8 mph
(S 9 kph)
- M1/4SM
12:55
Overcast
Fog
39°F / 4°C 39°F / 4°C 100% 29.77 in
(1008 mb)
SE 3.5 mph
(SE 6 kph)
- M1/4SM
12:35
Overcast
Fog
39°F / 4°C 39°F / 4°C 100% 29.77 in
(1008 mb)
SSE 4.6 mph
(SSE 7 kph)
- M1/4SM
12:15
Overcast
Fog
39°F / 4°C 39°F / 4°C 100% 29.77 in
(1008 mb)
SSE 5.8 mph
(SSE 9 kph)
- M1/4SM
11:55
Overcast
Fog
39°F / 4°C 39°F / 4°C 100% 29.77 in
(1008 mb)
SSE 6.9 mph
(SSE 11 kph)
- M1/4SM
11:35
Overcast
Fog
39°F / 4°C 39°F / 4°C 100% 29.8 in
(1009 mb)
S 5.8 mph
(S 9 kph)
- M1/4SM
11:15
Overcast
Fog
39°F / 4°C 39°F / 4°C 100% 29.8 in
(1009 mb)
SE 3.5 mph
(SE 6 kph)
- M1/4SM
10:55
Overcast
Fog
39°F / 4°C 39°F / 4°C 100% 29.8 in
(1009 mb)
SE 4.6 mph
(SE 7 kph)
- M1/4SM
10:35
Overcast
Fog
39°F / 4°C 39°F / 4°C 100% 29.8 in
(1009 mb)
SSE 4.6 mph
(SSE 7 kph)
- M1/4SM
10:15
Overcast
Fog
39°F / 4°C 39°F / 4°C 100% 29.83 in
(1010 mb)
SE 3.5 mph
(SE 6 kph)
- M1/4SM
09:55
Overcast
Fog
39°F / 4°C 39°F / 4°C 100% 29.83 in
(1010 mb)
S 5.8 mph
(S 9 kph)
- 1/4SM
09:35
Overcast
Fog
39°F / 4°C 39°F / 4°C 100% 29.83 in
(1010 mb)
S 6.9 mph
(S 11 kph)
- 1/4SM
09:15
Overcast
Fog
39°F / 4°C 39°F / 4°C 100% 29.83 in
(1010 mb)
S 5.8 mph
(S 9 kph)
- 1/4SM
08:55
Overcast
Fog
37°F / 3°C 37°F / 3°C 100% 29.83 in
(1010 mb)
S 5.8 mph
(S 9 kph)
- M1/4SM
08:35
Overcast
Fog
37°F / 3°C 37°F / 3°C 100% 29.83 in
(1010 mb)
S 3.5 mph
(S 6 kph)
- M1/4SM
08:15
Overcast
Fog
37°F / 3°C 37°F / 3°C 100% 29.83 in
(1010 mb)
S 4.6 mph
(S 7 kph)
- M1/4SM
07:55
Overcast
Fog
37°F / 3°C 37°F / 3°C 100% 29.83 in
(1010 mb)
S 3.5 mph
(S 6 kph)
- M1/4SM
07:35
Overcast
Fog
37°F / 3°C 37°F / 3°C 100% 29.83 in
(1010 mb)
S 3.5 mph
(S 6 kph)
- 1/4SM
07:15
Overcast
Fog
39°F / 4°C 39°F / 4°C 100% 29.83 in
(1010 mb)
S 4.6 mph
(S 7 kph)
- 1/4SM
06:55
Overcast
Fog
37°F / 3°C 37°F / 3°C 100% 29.83 in
(1010 mb)
S 5.8 mph
(S 9 kph)
- 1/4SM
06:35
Overcast
Fog
37°F / 3°C 37°F / 3°C 100% 29.83 in
(1010 mb)
SSE 3.5 mph
(SSE 6 kph)
- 1/4SM
06:15
Overcast
Fog
36°F / 2°C 36°F / 2°C 100% 29.83 in
(1010 mb)
S 4.6 mph
(S 7 kph)
- 1/4SM
05:55
Overcast
Fog
36°F / 2°C 36°F / 2°C 100% 29.86 in
(1011 mb)
S 3.5 mph
(S 6 kph)
- 1/4SM
05:35
Overcast
Fog
36°F / 2°C 36°F / 2°C 100% 29.86 in
(1011 mb)
S 4.6 mph
(S 7 kph)
- 1/4SM
05:15
Overcast
Fog
36°F / 2°C 36°F / 2°C 100% 29.86 in
(1011 mb)
Calm - 1/4SM
04:55
Overcast
Fog
37°F / 3°C 37°F / 3°C 100% 29.86 in
(1011 mb)
S 4.6 mph
(S 7 kph)
- 1/4SM
04:35
Overcast
Fog
37°F / 3°C 37°F / 3°C 100% 29.86 in
(1011 mb)
S 4.6 mph
(S 7 kph)
- 1/4SM
04:15
Overcast
Fog
36°F / 2°C 36°F / 2°C 100% 29.86 in
(1011 mb)
S 3.5 mph
(S 6 kph)
- 1/4SM
03:55
Overcast
Fog
36°F / 2°C 36°F / 2°C 100% 29.86 in
(1011 mb)
S 5.8 mph
(S 9 kph)
- 1/4SM
03:35
Overcast
Fog
37°F / 3°C 37°F / 3°C 100% 29.86 in
(1011 mb)
S 5.8 mph
(S 9 kph)
- 1/4SM
03:15
Overcast
Fog
37°F / 3°C 37°F / 3°C 100% 29.89 in
(1012 mb)
S 5.8 mph
(S 9 kph)
- 1/4SM
02:55
Overcast
Fog
37°F / 3°C 37°F / 3°C 100% 29.89 in
(1012 mb)
S 5.8 mph
(S 9 kph)
- 1/4SM
02:35
Overcast
Fog
36°F / 2°C 36°F / 2°C 100% 29.89 in
(1012 mb)
S 6.9 mph
(S 11 kph)
- 1/4SM
02:15
Overcast
Fog
36°F / 2°C 36°F / 2°C 100% 29.89 in
(1012 mb)
S 4.6 mph
(S 7 kph)
- 1/4SM
01:55
Overcast
Fog
36°F / 2°C 36°F / 2°C 100% 29.89 in
(1012 mb)
S 4.6 mph
(S 7 kph)
- 1/4SM
01:35
Overcast
Fog
36°F / 2°C 36°F / 2°C 100% 29.89 in
(1012 mb)
S 3.5 mph
(S 6 kph)
- 1/4SM
01:15
Overcast
Fog
36°F / 2°C 36°F / 2°C 100% 29.89 in
(1012 mb)
S 4.6 mph
(S 7 kph)
- 1/4SM
00:55
Overcast
Fog
36°F / 2°C 36°F / 2°C 100% 29.89 in
(1012 mb)
S 4.6 mph
(S 7 kph)
- 1/4SM
00:35
Overcast
Fog
36°F / 2°C 36°F / 2°C 100% 29.89 in
(1012 mb)
S 4.6 mph
(S 7 kph)
- 1/4SM
00:15
Overcast
Fog
37°F / 3°C 37°F / 3°C 100% 29.92 in
(1013 mb)
S 3.5 mph
(S 6 kph)
- 1/4SM
Time Weather Temperature Dewpoint Humidity Pressure Winds Precip Visibility


Weather for websites

WeatherForYou.com, LLC is not responsible for any damages or problems caused by this service. Current weather conditions are obtained from the closest station including government and personal stations which may have varying degrees of accuracy. Weather forecasts are derived from the NOAA NDFD. Like all things, this site belongs to Jesus Christ... He just trusts me to maintain it. If you have any questions or comments email webmaster@weatherforyou.com

Copyright © 2014, WeatherForYou.com LLC. All rights reserved.